Regional Weather Roundup
Issued by NWS

Home | Current Version | Previous Version | Text Only | Print | Product List | Glossary Off
Versions: 1 2 3 4 5 6 7 8 9 10 11 12 13 14 15 16 17 18 19 20 21 22 23 24 25 26 27 28 29 30 31 32 33 34 35 36 37 38 39 40 41 42 43 44 45 46 47 48 49 50

000
ASUS45 KCYS 310810
RWRWY

WYOMING REGIONAL WEATHER ROUNDUP
NATIONAL WEATHER SERVICE CHEYENNE WY
200 AM MDT THU JUL 31 2014

NOTE:  "FAIR" INDICATES FEW OR NO CLOUDS BELOW 12,000 FEET
WITH NO SIGNIFICANT WEATHER AND/OR OBSTRUCTIONS TO VISIBILITY.

WYZ001-310900-
YELLOWSTONE NATIONAL PARK

CITY           SKY/WX    TMP DP  RH WIND       PRES   REMARKS
LK YELLOWSTONE   N/A     45  40  82 CALM      30.48S
W YELLOWSTONE  NOT AVBL

$$
WYZ002>013-054>058-071-098>099-310900-
NORTHERN WYOMING

CITY           SKY/WX    TMP DP  RH WIND       PRES   REMARKS
JACKSON        CLEAR     46  45  93 N7        30.40R
CODY           NOT AVBL
GREYBULL       CLEAR     65  41  41 SE8       30.18F
WORLAND        CLEAR     61  45  55 SE6       30.20F
SHERIDAN       CLEAR     52  42  69 S3        30.18F
BUFFALO        CLEAR     61  34  36 W7        30.27F
GILLETTE       PTCLDY    57  46  66 S3        30.22F
HULETT         FAIR      57  45  62 MISG      30.23
NEWCASTLE      FAIR      55  37  50 N6        30.23

$$
WYZ014>020-022>026-101>103-310900-
CENTRAL WYOMING

CITY           SKY/WX    TMP DP  RH WIND       PRES   REMARKS
BIG PINEY      CLEAR     44  41  89 E5        30.43F
PINEDALE       SUNNY     41  39  93 CALM      30.43F
DUBOIS         FAIR      45  34  65 NW10      30.43S
LANDER         CLEAR     59  45  59 VRB6      30.30S
RIVERTON       CLEAR     58  42  55 NW14      30.30S
CASPER         CLEAR     54  43  66 W7        30.29F
DOUGLAS        CLEAR     54  49  83 N5        30.27S

$$
WYZ021-027>030-104>119-310900-
SOUTHERN WYOMING

CITY           SKY/WX    TMP DP  RH WIND       PRES   REMARKS
EVANSTON       CLEAR     54  48  80 NE7       30.38F
KEMMERER       SUNNY     48  45  87 N10       30.41F
FORT BRIDGER     N/A     53  50  90 E6        30.41F
ROCK SPRINGS   CLEAR     52  43  71 S5        30.38F
DIXON          FAIR      53  47  79 CALM      30.35F
RAWLINS        PTCLDY    50  47  89 CALM      30.37S
SARATOGA       FAIR      48  46  93 CALM      30.38F
LARAMIE        MOCLDY    51  49  92 W3        30.38S
CHEYENNE       CLOUDY    56  52  86 W5        30.32F
TORRINGTON     MOCLDY    58  56  93 NE6       30.21S
PINE BLUFFS    FAIR      55  55 100 SW3       30.29S

$$



USA.gov is the U.S. government's official web portal to all federal, state and local government web resources and services.